Regional Weather Roundup
Issued by NWS San Angelo, TX

Home | Current Version | Previous Version | Text Only | Print | Product List | Glossary On
Versions: 1 2 3 4 5 6 7 8 9 10 11 12 13 14 15 16 17 18 19 20 21 22 23 24 25 26 27 28 29 30 31 32 33 34 35 36 37 38 39 40 41 42 43 44 45 46 47 48 49 50
447
ASUS44 KSJT 031802
RWRSJT
WEST CENTRAL TEXAS REGIONAL WEATHER ROUNDUP
NATIONAL WEATHER SERVICE SAN ANGELO TX
1200 PM CST SAT DEC 03 2016

NOTE: "FAIR" INDICATES FEW OR NO CLOUDS BELOW 12,000 FEET WITH NO
SIGNIFICANT WEATHER AND/OR OBSTRUCTIONS TO VISIBILITY.

TXZ049-054-064>066-071>073-076>078-098-099-113-114-127-128-139-140-
154-155-168>170-031900
...LOCATIONS ACROSS WEST CENTRAL TEXAS...

CITY           SKY/WX    TMP DP  RH WIND       PRES   REMARKS
SAN ANGELO     CLOUDY    47  45  93 NE8       30.03F
ABILENE        LGT RAIN  46  46 100 NE6       30.06F
DYESS AFB      CLOUDY    46  45  93 NE8       30.05F
JUNCTION       LGT RAIN  48  46  93 NE6       30.01R
SWEETWATER     NOT AVBL
BROWNWOOD      NOT AVBL
COLEMAN        CLOUDY    47  46  93 E6        30.04R
SONORA         NOT AVBL
OZONA          NOT AVBL
BRADY          NOT AVBL
$$

TEXAS PANHANDLE/OKLAHOMA PANHANDLE

CITY           SKY/WX    TMP DP  RH WIND       PRES   REMARKS
AMARILLO       CLOUDY    36  36 100 CALM      30.11F FOG
BORGER         CLOUDY    36  36 100 CALM      30.13F FOG
CANADIAN       CLOUDY    44  41  89 S8        30.14F WCI  39
DALHART        CLOUDY    33  33 100 SW3       30.12F FOG
DUMAS          CLOUDY    32  32 100 CALM      30.11F
GUYMON         NOT AVBL
HEREFORD       CLOUDY    37  37 100 N8        30.11F FOG     WCI  30
PAMPA          CLOUDY    41  38  91 S10       30.12F WCI  34
PERRYTON       CLOUDY    38  37  97 SE3       30.13F
$$

SOUTHERN PANHANDLE/SOUTH PLAINS/ROLLING PLAINS

CITY           SKY/WX    TMP DP  RH WIND       PRES   REMARKS
LUBBOCK        CLOUDY    40  38  93 E10       30.07F WCI  33
SNYDER         NOT AVBL
CHILDRESS      LGT RAIN  44  41  89 E9        30.12F WCI  39
SEMINOLE       CLOUDY    40  40  97 NE9       30.08F WCI  34
$$

PERMIAN BASIN

CITY           SKY/WX    TMP DP  RH WIND       PRES   REMARKS
MIDLAND        NOT AVBL
ODESSA         CLOUDY    43  40  89 E12       30.05F FOG     WCI  37
WINK           CLOUDY    44  42  93 E10       30.05S WCI  39
$$

FAR WEST/SOUTHWEST MOUNTAINS/TRANS PECOS

CITY           SKY/WX    TMP DP  RH WIND       PRES   REMARKS
ALPINE         CLOUDY    39  39  99 N6        30.06F WCI  35
DRYDEN           N/A     51  45  79 N17G24    29.96F
EL PASO        LGT RAIN  40  35  83 N15       30.01S WCI  32
FORT STOCKTON  CLOUDY    46  46 100 NE7       30.02F FOG
GUADALUPE PASS CLOUDY    35  35 100 NE38      29.97F WCI  20
MARFA          CLOUDY    41  38  89 NE21      29.96F WCI  32
PECOS          DRIZZLE   44  43  97 N8        30.05F WCI  39
$$

DALLAS/FORT WORTH METROPLEX

CITY           SKY/WX    TMP DP  RH WIND       PRES   REMARKS
DFW AIRPORT    LGT RAIN  50  47  89 E7        30.06F FOG
FTW MEACHAM    LGT RAIN  50  46  86 NE8       30.06F FOG
DAL-EXECUTIVE  LGT RAIN  50  48  93 E10       30.05F
GRAND PRAIRIE  CLOUDY    48  48 100 NE8       30.08F FOG
ADDISON        LGT RAIN  48  48 100 E9        30.09S
MESQUITE       CLOUDY    48  48 100 NE5       30.07F
LANCASTER      RAIN      50  47  89 NE5       30.07F
$$

NORTH CENTRAL TEXAS

CITY           SKY/WX    TMP DP  RH WIND       PRES   REMARKS
SHRMAN/DENISON NOT AVBL
GAINESVILLE    RAIN      46  44  93 NE5       30.14S
BRIDGEPORT     RAIN      47  47 100 E8        30.09F
DENTON         RAIN      48  47  96 NE8       30.09F FOG
WAXAHACHIE     RAIN      48  48 100 NE7       30.06F
GRANBURY       LGT RAIN  50  48  92 E8        30.06F
$$

WESTERN NORTH TEXAS

CITY           SKY/WX    TMP DP  RH WIND       PRES   REMARKS
WICHITA FALLS  LGT RAIN  45  43  93 NE17G28   30.09F WCI  38
VERNON         CLOUDY    46  41  83 NE10      30.12F
BRECKENRIDGE   NOT AVBL
COMANCHE       DRIZZLE   48  48 100 E6        30.04F
$$

CENTRAL AND SOUTH CENTRAL TEXAS

CITY           SKY/WX    TMP DP  RH WIND       PRES   REMARKS
AUSTIN/BERGSTM RAIN      51  50  96 N7        30.00R FOG
WACO           CLOUDY    50  49  96 N8        30.03F
HILLSBORO      LGT RAIN  50  49  94 NE8       30.03F
TEMPLE         LGT RAIN  51  49  92 NE9       30.02S
KILLEEN-GRAY   LGT RAIN  49  48  97 NE9       29.98F
FORT HOOD      RAIN      49  49 100 NE9       29.98F VSB 3/4
GEORGETOWN     LGT RAIN  50  46  87 N8        30.01S
LAGO VISTA     LGT RAIN  50  49  97 NE8       29.98F
SAN MARCOS     RAIN      54  48  82 N12       29.98S FOG
NEW BRAUNFELS  HVY RAIN  51  49  92 NE17      29.92F FOG
RANDOLPH AFB   LGT RAIN  50  50 100 NE12      29.93F
SAN ANTONIO    HVY RAIN  51  49  92 NE6       29.96S FOG
STINSON        HVY RAIN  53  50  89 NE10      29.92S FOG
PLEASANTON     NOT AVBL
LA GRANGE      LGT RAIN  52  51  96 N5        29.93F
GIDDINGS       RAIN      50  49  97 N8        30.00F
$$

EAST TEXAS

CITY           SKY/WX    TMP DP  RH WIND       PRES   REMARKS
PARIS          CLOUDY    46  43  87 E21G29    30.08F WCI  39
CLARKSVILLE    NOT AVBL
TYLER          LGT RAIN  49  47  93 E13G24    30.02F
LONGVIEW       LGT RAIN  48  48 100 E14       30.04F FOG
PALESTINE      LGT RAIN  49  48  96 NE6       30.03S
NACOGDOCHES    CLOUDY    46  45  93 E15G25    29.99F
$$

TEXAS HILL COUNTRY AND EDWARDS PLATEAU

CITY           SKY/WX    TMP DP  RH WIND       PRES   REMARKS
LLANO          NOT AVBL
HORSESHOE BAY  DRIZZLE   50  49  97 CALM      29.99F
KERRVILLE      RAIN      49  47  95 N6        29.97F
FREDERICKSBRG  NOT AVBL
ROCKSPRINGS    NOT AVBL
HONDO          LGT RAIN  54  52  93 N7        29.96R
UVALDE         DRIZZLE   55  54  97 CALM      29.95R
DEL RIO        LGT RAIN  55  54  96 NE6       29.94F
$$

SOUTHEAST TEXAS

CITY           SKY/WX    TMP DP  RH WIND       PRES   REMARKS
COLLEGE STN    LGT RAIN  51  49  92 NE13      29.97F
CALDWELL       NOT AVBL
CROCKETT       NOT AVBL
BRENHAM        NOT AVBL
HUNTSVILLE     CLOUDY    49  47  93 NE8       29.95F
CONROE         LGT RAIN  51  49  92 NE13G22   29.92F
HOUSTON BUSH   NOT AVBL
HOUSTON HOBBY  CLOUDY    56  54  93 NE15      29.90F
PERLAND        CLOUDY    59  55  87 N13       29.91F
WHARTON        CLOUDY    54  53  96 N8        29.90S
$$

THE UPPER TEXAS COAST

CITY           SKY/WX    TMP DP  RH WIND       PRES   REMARKS
ORANGE         HVY RAIN N/A N/A N/A NE6       29.95R
PORT ARTHUR    HVY RAIN  54  53  97 NE17G24   29.90F FOG
GALVESTON      TSTM      63  62  97 N26       29.87S VSB 1/2
ANGLETON       CLOUDY    59  58  96 N14       29.89F
BAY CITY       CLOUDY    57  57  99 N8        29.89F
$$

TEXAS COASTAL BEND, RIO GRANDE PLAINS DEEP SOUTH TEXAS

CITY           SKY/WX    TMP DP  RH WIND       PRES   REMARKS
VICTORIA       LGT RAIN  54  53  97 N12       29.90F
BEEVILLE       CLOUDY    56  56 100 N15       29.89F
ROCKPORT         N/A    N/A N/A N/A MISG      29.86F
PORT ARANSAS   CLOUDY    63  60  88 N13       29.85F
PORT LAVACA    CLOUDY    57  56  97 N14       29.89S
CORPUS CHRISTI CLOUDY    62  58  86 NE13      29.85F
KINGSVILLE NAS CLOUDY    72  62  71 N10       29.83
COTULLA        LGT RAIN  55  52  89 NE9       29.90F
LAREDO         CLOUDY    58  57  97 NE12      29.88F FOG
BROWNSVILLE    CLOUDY    83  72  69 S23G29    29.81F
PORT ISABEL    CLOUDY    82  72  71 S16G23    29.80F HAZE
HEBBRONVILLE   HVY RAIN  61  60  98 N8        29.86S VSB 1/2
MCALLEN        CLOUDY    82  71  69 VRB6      29.81F
WESLACO        NOT AVBL
FALFURRIAS     CLOUDY    73  65  76 NE7       29.83F
EDINBURG       CLOUDY    82  70  67 S8        29.81F
$$




USA.gov is the U.S. government's official web portal to all federal, state and local government web resources and services.